TimeEDT,TemperatureF,Dew PointF,Humidity,Sea Level PressureIn,VisibilityMPH,Wind Direction,Wind SpeedMPH,Gust SpeedMPH,PrecipitationIn,Events,Conditions,WindDirDegrees,DateUTC
12:15 AM,48.0,41.0,77,29.51,10.0,Calm,Calm,-,N/A,,Overcast,0,2012-11-01 04:15:00
12:35 AM,47.7,39.7,74,29.51,10.0,Calm,Calm,-,N/A,,Overcast,0,2012-11-01 04:35:00
12:55 AM,46.9,41.5,81,29.51,10.0,Calm,Calm,-,N/A,,Overcast,0,2012-11-01 04:55:00
1:15 AM,47.5,39.4,73,29.51,10.0,Calm,Calm,-,N/A,,Overcast,0,2012-11-01 05:15:00
1:35 AM,45.9,42.1,87,29.51,10.0,Calm,Calm,-,N/A,,Overcast,0,2012-11-01 05:35:00
1:55 AM,46.6,40.5,79,29.51,10.0,Calm,Calm,-,N/A,,Overcast,0,2012-11-01 05:55:00
2:15 AM,45.9,40.8,83,29.51,10.0,Calm,Calm,-,N/A,,Overcast,0,2012-11-01 06:15:00
2:35 AM,46.4,40.1,79,29.50,10.0,Calm,Calm,-,N/A,,Overcast,0,2012-11-01 06:35:00
2:55 AM,46.6,39.6,77,29.50,10.0,Calm,Calm,-,N/A,,Overcast,0,2012-11-01 06:55:00
3:15 AM,46.2,39.6,78,29.50,10.0,SE,3.5,-,N/A,,Overcast,130,2012-11-01 07:15:00
3:35 AM,45.9,38.7,76,29.49,10.0,Calm,Calm,-,N/A,,Overcast,0,2012-11-01 07:35:00
3:55 AM,45.0,39.0,80,29.49,10.0,Calm,Calm,-,N/A,,Mostly Cloudy,0,2012-11-01 07:55:00
4:15 AM,45.0,39.7,82,29.49,10.0,Calm,Calm,-,N/A,,Mostly Cloudy,0,2012-11-01 08:15:00
4:35 AM,44.6,40.8,87,29.49,10.0,Calm,Calm,-,N/A,,Overcast,0,2012-11-01 08:35:00
4:55 AM,44.8,40.6,85,29.49,10.0,Calm,Calm,-,N/A,,Overcast,0,2012-11-01 08:55:00
5:15 AM,44.8,40.1,84,29.49,10.0,Calm,Calm,-,N/A,,Overcast,0,2012-11-01 09:15:00
5:35 AM,44.6,41.2,88,29.49,10.0,Calm,Calm,-,N/A,,Overcast,0,2012-11-01 09:35:00
5:55 AM,44.6,41.4,88,29.49,10.0,Calm,Calm,-,N/A,,Overcast,0,2012-11-01 09:55:00
6:15 AM,44.6,41.4,88,29.49,10.0,Calm,Calm,-,N/A,,Overcast,0,2012-11-01 10:15:00
6:35 AM,44.6,41.0,87,29.49,10.0,Calm,Calm,-,N/A,,Overcast,0,2012-11-01 10:35:00
6:55 AM,44.8,40.3,84,29.49,10.0,Calm,Calm,-,N/A,,Overcast,0,2012-11-01 10:55:00
7:15 AM,44.6,40.5,85,29.50,10.0,Calm,Calm,-,N/A,,Overcast,0,2012-11-01 11:15:00
7:35 AM,44.6,40.1,84,29.50,10.0,Calm,Calm,-,N/A,,Overcast,0,2012-11-01 11:35:00
7:55 AM,44.6,40.1,84,29.51,10.0,Calm,Calm,-,N/A,,Overcast,0,2012-11-01 11:55:00
8:15 AM,44.6,40.1,84,29.52,10.0,Calm,Calm,-,N/A,,Overcast,0,2012-11-01 12:15:00
8:35 AM,44.6,39.6,82,29.52,10.0,SSE,3.5,-,N/A,,Overcast,150,2012-11-01 12:35:00
8:55 AM,44.8,39.0,80,29.52,10.0,Calm,Calm,-,N/A,,Overcast,0,2012-11-01 12:55:00
9:15 AM,45.0,39.2,80,29.52,10.0,SSE,3.5,-,N/A,,Overcast,160,2012-11-01 13:15:00
9:35 AM,45.0,39.0,80,29.52,10.0,SSE,3.5,-,N/A,,Mostly Cloudy,160,2012-11-01 13:35:00
9:55 AM,45.5,38.5,76,29.52,10.0,Calm,Calm,-,N/A,,Clear,0,2012-11-01 13:55:00
10:15 AM,45.9,37.9,74,29.52,10.0,Calm,Calm,-,N/A,,Clear,0,2012-11-01 14:15:00
10:35 AM,46.4,37.8,72,29.52,10.0,SSE,4.6,-,N/A,,Clear,160,2012-11-01 14:35:00
10:55 AM,46.9,37.6,70,29.52,10.0,SSE,4.6,-,N/A,,Mostly Cloudy,150,2012-11-01 14:55:00
11:15 AM,47.5,36.9,67,29.52,10.0,South,3.5,-,N/A,,Mostly Cloudy,180,2012-11-01 15:15:00
11:35 AM,47.7,36.3,65,29.51,10.0,SSE,3.5,-,N/A,,Overcast,160,2012-11-01 15:35:00
11:55 AM,48.0,36.9,65,29.51,10.0,SE,4.6,-,N/A,,Overcast,140,2012-11-01 15:55:00
12:15 PM,48.6,37.0,64,29.50,10.0,Calm,Calm,-,N/A,,Overcast,0,2012-11-01 16:15:00
12:35 PM,49.1,36.5,62,29.49,10.0,South,3.5,-,N/A,,Overcast,190,2012-11-01 16:35:00
12:55 PM,49.1,36.3,61,29.49,10.0,SSE,5.8,-,N/A,,Overcast,160,2012-11-01 16:55:00
1:15 PM,49.5,36.3,61,29.48,10.0,SE,4.6,-,N/A,,Overcast,130,2012-11-01 17:15:00
1:35 PM,49.1,36.0,61,29.48,10.0,South,5.8,-,N/A,,Overcast,170,2012-11-01 17:35:00
1:55 PM,48.7,36.5,63,29.48,10.0,SSW,3.5,-,N/A,,Overcast,210,2012-11-01 17:55:00
2:15 PM,49.1,36.5,62,29.47,10.0,Calm,Calm,-,N/A,,Overcast,0,2012-11-01 18:15:00
2:35 PM,49.1,36.5,62,29.47,10.0,Calm,Calm,-,N/A,,Overcast,0,2012-11-01 18:35:00
2:55 PM,49.1,37.0,63,29.47,10.0,South,3.5,-,N/A,Rain,Light Rain,180,2012-11-01 18:55:00
3:15 PM,48.9,37.2,64,29.47,10.0,Calm,Calm,-,N/A,,Overcast,0,2012-11-01 19:15:00
3:35 PM,49.1,37.0,63,29.48,10.0,Calm,Calm,-,N/A,,Overcast,0,2012-11-01 19:35:00
3:55 PM,49.1,38.3,66,29.48,10.0,Calm,Calm,-,N/A,,Overcast,0,2012-11-01 19:55:00
4:15 PM,48.4,39.0,70,29.48,10.0,Calm,Calm,-,N/A,,Overcast,0,2012-11-01 20:15:00
4:35 PM,48.2,38.5,69,29.48,10.0,Calm,Calm,-,N/A,,Overcast,0,2012-11-01 20:35:00
4:55 PM,48.2,39.2,71,29.49,10.0,Calm,Calm,-,N/A,,Overcast,0,2012-11-01 20:55:00
5:15 PM,48.2,38.5,69,29.49,10.0,Calm,Calm,-,N/A,,Overcast,0,2012-11-01 21:15:00
5:35 PM,47.3,40.3,77,29.49,10.0,Calm,Calm,-,N/A,,Mostly Cloudy,0,2012-11-01 21:35:00
5:55 PM,46.6,40.6,80,29.49,10.0,Calm,Calm,-,N/A,,Overcast,0,2012-11-01 21:55:00
6:15 PM,46.4,40.6,80,29.49,10.0,Calm,Calm,-,N/A,,Overcast,0,2012-11-01 22:15:00
6:35 PM,45.9,41.5,85,29.50,10.0,Calm,Calm,-,N/A,,Mostly Cloudy,0,2012-11-01 22:35:00
6:55 PM,45.3,41.0,85,29.50,10.0,Calm,Calm,-,N/A,,Mostly Cloudy,0,2012-11-01 22:55:00
7:15 PM,44.8,41.4,88,29.50,10.0,Calm,Calm,-,N/A,,Mostly Cloudy,0,2012-11-01 23:15:00
7:35 PM,43.9,41.0,90,29.50,10.0,Calm,Calm,-,N/A,,Overcast,0,2012-11-01 23:35:00
7:55 PM,43.9,41.2,90,29.50,10.0,Calm,Calm,-,N/A,,Overcast,0,2012-11-01 23:55:00
8:15 PM,43.7,41.2,91,29.50,10.0,Calm,Calm,-,N/A,,Overcast,0,2012-11-02 00:15:00
8:35 PM,43.9,41.4,91,29.50,10.0,Calm,Calm,-,N/A,,Mostly Cloudy,0,2012-11-02 00:35:00
8:55 PM,43.3,41.0,91,29.50,10.0,Calm,Calm,-,N/A,,Overcast,0,2012-11-02 00:55:00
9:15 PM,43.7,41.0,90,29.50,10.0,Calm,Calm,-,N/A,,Overcast,0,2012-11-02 01:15:00
9:35 PM,43.2,41.0,92,29.50,10.0,Calm,Calm,-,N/A,,Light Drizzle,0,2012-11-02 01:35:00
9:55 PM,43.0,41.2,93,29.50,10.0,Calm,Calm,-,N/A,Rain,Light Rain,0,2012-11-02 01:55:00
10:15 PM,42.8,41.2,94,29.50,10.0,Calm,Calm,-,N/A,,Overcast,0,2012-11-02 02:15:00
10:35 PM,42.8,41.4,95,29.50,10.0,Calm,Calm,-,N/A,,Overcast,0,2012-11-02 02:35:00
10:55 PM,42.4,41.4,96,29.50,10.0,Calm,Calm,-,N/A,,Overcast,0,2012-11-02 02:55:00
11:15 PM,42.4,41.4,96,29.50,10.0,Calm,Calm,-,N/A,,Overcast,0,2012-11-02 03:15:00
11:35 PM,42.1,41.0,96,29.50,10.0,Calm,Calm,-,N/A,,Mostly Cloudy,0,2012-11-02 03:35:00
11:55 PM,41.9,41.0,97,29.50,10.0,Calm,Calm,-,N/A,,Overcast,0,2012-11-02 03:55:00